Time,TemperatureF,DewpointF,PressureIn,WindDirection,WindDirectionDegrees,WindSpeedMPH,WindSpeedGustMPH,Humidity,HourlyPrecipIn,Conditions,Clouds,dailyrainin,SoftwareType,DateUTC
2013-05-25 00:02:00,43.0,37.0,30.44,North,360,8.0,10.0,78,-99.99,,,-99.99,,2013-05-25 05:02:00,
2013-05-25 00:11:00,43.0,37.0,30.44,NNW,330,7.0,9.0,80,-99.99,,,-99.99,,2013-05-25 05:11:00,
2013-05-25 00:22:00,43.0,37.0,30.44,NNW,330,7.0,9.0,80,-99.99,,,-99.99,,2013-05-25 05:22:00,
2013-05-25 00:32:00,43.0,37.0,30.44,NNW,330,5.0,7.0,78,-99.99,,,-99.99,,2013-05-25 05:32:00,
2013-05-25 00:42:00,43.0,37.0,30.44,NNW,330,5.0,7.0,78,-99.99,,,-99.99,,2013-05-25 05:42:00,
2013-05-25 00:52:00,43.0,38.0,30.44,NNW,330,6.0,8.0,80,-99.99,,,-99.99,,2013-05-25 05:52:00,
2013-05-25 01:01:00,43.0,38.0,30.43,North,360,6.0,8.0,81,-99.99,,,-99.99,,2013-05-25 06:01:00,
2013-05-25 01:11:00,43.0,37.0,30.43,NNW,340,6.0,7.0,79,-99.99,,,-99.99,,2013-05-25 06:11:00,
2013-05-25 01:21:00,43.0,37.0,30.43,NNW,340,6.0,7.0,79,-99.99,,,-99.99,,2013-05-25 06:21:00,
2013-05-25 01:32:00,43.0,37.0,30.43,North,350,6.0,7.0,79,-99.99,,,-99.99,,2013-05-25 06:32:00,
2013-05-25 01:41:00,43.0,37.0,30.43,North,350,6.0,7.0,79,-99.99,,,-99.99,,2013-05-25 06:41:00,
2013-05-25 01:51:00,44.0,37.0,30.42,North,10,6.0,8.0,77,-99.99,,,-99.99,,2013-05-25 06:51:00,
2013-05-25 02:01:00,44.0,38.0,30.42,NNE,30,7.0,9.0,78,-99.99,,,-99.99,,2013-05-25 07:01:00,
2013-05-25 02:11:00,44.0,38.0,30.42,NNE,30,7.0,9.0,78,-99.99,,,-99.99,,2013-05-25 07:11:00,
2013-05-25 02:21:00,44.0,38.0,30.41,ENE,60,6.0,7.0,81,-99.99,,,-99.99,,2013-05-25 07:21:00,
2013-05-25 02:31:00,44.0,38.0,30.41,ENE,60,6.0,7.0,81,-99.99,,,-99.99,,2013-05-25 07:31:00,
2013-05-25 02:41:00,44.0,38.0,30.41,ENE,60,6.0,7.0,81,-99.99,,,-99.99,,2013-05-25 07:41:00,
2013-05-25 02:52:00,43.0,39.0,30.41,ENE,70,5.0,7.0,83,-99.99,,,-99.99,,2013-05-25 07:52:00,
2013-05-25 03:01:00,43.0,39.0,30.40,ENE,70,6.0,7.0,85,-99.99,,,-99.99,,2013-05-25 08:01:00,
2013-05-25 03:11:00,43.0,39.0,30.40,ENE,70,6.0,7.0,85,-99.99,,,-99.99,,2013-05-25 08:11:00,
2013-05-25 03:22:00,41.0,38.0,30.39,East,100,7.0,8.0,86,-99.99,,,-99.99,,2013-05-25 08:22:00,
2013-05-25 03:31:00,42.0,38.0,30.38,East,90,5.0,7.0,86,-99.99,,,-99.99,,2013-05-25 08:31:00,
2013-05-25 03:41:00,42.0,38.0,30.38,East,90,5.0,7.0,86,-99.99,,,-99.99,,2013-05-25 08:41:00,
2013-05-25 03:51:00,42.0,38.0,30.39,East,100,5.0,6.0,86,-99.99,,,-99.99,,2013-05-25 08:51:00,
2013-05-25 04:01:00,42.0,38.0,30.38,East,100,5.0,6.0,87,-99.99,,,-99.99,,2013-05-25 09:01:00,
2013-05-25 04:11:00,42.0,38.0,30.38,East,100,5.0,6.0,87,-99.99,,,-99.99,,2013-05-25 09:11:00,
2013-05-25 04:21:00,42.0,39.0,30.39,East,80,2.0,5.0,87,-99.99,,,-99.99,,2013-05-25 09:21:00,
2013-05-25 04:33:00,42.0,39.0,30.39,ENE,70,5.0,7.0,86,-99.99,,,-99.99,,2013-05-25 09:33:00,
2013-05-25 04:42:00,42.0,39.0,30.39,ENE,70,5.0,7.0,86,-99.99,,,-99.99,,2013-05-25 09:42:00,
2013-05-25 04:52:00,43.0,39.0,30.40,ENE,70,3.0,5.0,86,-99.99,,,-99.99,,2013-05-25 09:52:00,
2013-05-25 05:02:00,43.0,39.0,30.41,East,100,2.0,3.0,86,-99.99,,,-99.99,,2013-05-25 10:02:00,
2013-05-25 05:12:00,43.0,39.0,30.41,East,100,2.0,3.0,86,-99.99,,,-99.99,,2013-05-25 10:12:00,
2013-05-25 05:22:00,43.0,39.0,30.42,ESE,120,2.0,2.0,86,-99.99,,,-99.99,,2013-05-25 10:22:00,
2013-05-25 05:32:00,43.0,39.0,30.43,SSE,160,2.0,2.0,86,-99.99,,,-99.99,,2013-05-25 10:32:00,
2013-05-25 05:42:00,43.0,39.0,30.43,SSE,160,2.0,2.0,86,-99.99,,,-99.99,,2013-05-25 10:42:00,
2013-05-25 05:52:00,43.0,40.0,30.43,ENE,70,3.0,5.0,87,-99.99,,,-99.99,,2013-05-25 10:52:00,
2013-05-25 06:02:00,43.0,40.0,30.42,SE,130,3.0,5.0,87,-99.99,,,-99.99,,2013-05-25 11:02:00,
2013-05-25 06:11:00,43.0,40.0,30.42,SE,130,3.0,5.0,87,-99.99,,,-99.99,,2013-05-25 11:11:00,
2013-05-25 06:21:00,44.0,40.0,30.43,East,100,3.0,5.0,85,-99.99,,,-99.99,,2013-05-25 11:21:00,
2013-05-25 06:32:00,44.0,40.0,30.43,East,100,2.0,3.0,84,-99.99,,,-99.99,,2013-05-25 11:32:00,
2013-05-25 06:41:00,44.0,40.0,30.43,East,100,2.0,3.0,84,-99.99,,,-99.99,,2013-05-25 11:41:00,
2013-05-25 06:52:00,44.0,40.0,30.44,SE,130,2.0,3.0,85,-99.99,,,-99.99,,2013-05-25 11:52:00,
2013-05-25 07:01:00,44.0,41.0,30.44,ENE,70,2.0,3.0,87,-99.99,,,-99.99,,2013-05-25 12:01:00,
2013-05-25 07:11:00,44.0,41.0,30.44,ENE,70,2.0,3.0,87,-99.99,,,-99.99,,2013-05-25 12:11:00,
2013-05-25 07:21:00,45.0,41.0,30.45,SSE,160,2.0,3.0,87,-99.99,,,-99.99,,2013-05-25 12:21:00,
2013-05-25 07:32:00,45.0,40.0,30.46,South,180,5.0,7.0,84,-99.99,,,-99.99,,2013-05-25 12:32:00,
2013-05-25 07:42:00,45.0,40.0,30.46,South,180,5.0,7.0,84,-99.99,,,-99.99,,2013-05-25 12:42:00,
2013-05-25 07:52:00,45.0,41.0,30.47,South,180,2.0,3.0,87,-99.99,,,-99.99,,2013-05-25 12:52:00,
2013-05-25 08:01:00,45.0,42.0,30.46,WSW,240,2.0,3.0,87,-99.99,,,-99.99,,2013-05-25 13:01:00,
2013-05-25 08:11:00,45.0,42.0,30.46,WSW,240,2.0,3.0,87,-99.99,,,-99.99,,2013-05-25 13:11:00,
2013-05-25 08:21:00,46.0,43.0,30.46,North,0,0.0,1.0,87,-99.99,,,-99.99,,2013-05-25 13:21:00,
2013-05-25 08:32:00,48.0,43.0,30.45,North,350,2.0,3.0,84,-99.99,,,-99.99,,2013-05-25 13:32:00,
2013-05-25 08:42:00,48.0,43.0,30.45,North,350,2.0,3.0,84,-99.99,,,-99.99,,2013-05-25 13:42:00,
2013-05-25 08:52:00,48.0,42.0,30.45,NNE,30,3.0,5.0,81,-99.99,,,-99.99,,2013-05-25 13:52:00,
2013-05-25 09:01:00,46.0,43.0,30.45,NNE,20,5.0,6.0,86,-99.99,,,-99.99,,2013-05-25 14:01:00,
2013-05-25 09:11:00,47.0,43.0,30.45,NNE,20,6.0,7.0,86,-99.99,,,-99.99,,2013-05-25 14:11:00,
2013-05-25 09:22:00,47.0,43.0,30.45,NNE,20,6.0,7.0,86,-99.99,,,-99.99,,2013-05-25 14:22:00,
2013-05-25 09:32:00,47.0,43.0,30.45,NNE,20,7.0,7.0,86,-99.99,,,-99.99,,2013-05-25 14:32:00,
2013-05-25 09:41:00,47.0,43.0,30.45,NNE,20,7.0,7.0,86,-99.99,,,-99.99,,2013-05-25 14:41:00,
2013-05-25 09:52:00,47.0,43.0,30.46,NNE,20,8.0,10.0,86,-99.99,,,-99.99,,2013-05-25 14:52:00,
2013-05-25 10:01:00,47.0,44.0,30.45,NNE,30,8.0,10.0,86,-99.99,,,-99.99,,2013-05-25 15:01:00,
2013-05-25 10:11:00,48.0,44.0,30.46,North,10,5.0,6.0,84,-99.99,,,-99.99,,2013-05-25 15:11:00,
2013-05-25 10:22:00,48.0,44.0,30.46,North,10,5.0,6.0,84,-99.99,,,-99.99,,2013-05-25 15:22:00,
2013-05-25 10:32:00,49.0,44.0,30.45,North,350,8.0,9.0,83,-99.99,,,-99.99,,2013-05-25 15:32:00,
2013-05-25 10:43:00,49.0,44.0,30.45,North,350,8.0,9.0,83,-99.99,,,-99.99,,2013-05-25 15:43:00,
2013-05-25 10:53:00,48.0,44.0,30.46,North,360,8.0,10.0,86,-99.99,,,-99.99,,2013-05-25 15:53:00,
2013-05-25 11:02:00,47.0,43.0,30.45,North,10,10.0,11.0,88,-99.99,,,-99.99,,2013-05-25 16:02:00,
2013-05-25 11:12:00,47.0,44.0,30.45,North,10,9.0,11.0,88,-99.99,,,-99.99,,2013-05-25 16:12:00,
2013-05-25 11:22:00,47.0,44.0,30.45,North,10,9.0,11.0,88,-99.99,,,-99.99,,2013-05-25 16:22:00,
2013-05-25 11:32:00,47.0,43.0,30.45,North,10,9.0,11.0,88,-99.99,,,-99.99,,2013-05-25 16:32:00,
2013-05-25 11:42:00,47.0,43.0,30.45,North,10,9.0,11.0,88,-99.99,,,-99.99,,2013-05-25 16:42:00,
2013-05-25 11:52:00,47.0,43.0,30.45,North,10,9.0,11.0,87,-99.99,,,-99.99,,2013-05-25 16:52:00,
2013-05-25 12:02:00,47.0,43.0,30.45,North,360,9.0,11.0,86,-99.99,,,-99.99,,2013-05-25 17:02:00,
2013-05-25 12:11:00,49.0,44.0,30.46,NNW,340,8.0,9.0,83,-99.99,,,-99.99,,2013-05-25 17:11:00,
2013-05-25 12:22:00,49.0,44.0,30.46,NNW,340,8.0,9.0,83,-99.99,,,-99.99,,2013-05-25 17:22:00,
2013-05-25 12:32:00,48.0,43.0,30.46,NW,310,7.0,9.0,80,-99.99,,,-99.99,,2013-05-25 17:32:00,
2013-05-25 12:41:00,48.0,43.0,30.46,NW,310,7.0,9.0,80,-99.99,,,-99.99,,2013-05-25 17:41:00,
2013-05-25 12:52:00,48.0,43.0,30.47,NW,310,7.0,8.0,82,-99.99,,,-99.99,,2013-05-25 17:52:00,
2013-05-25 13:01:00,48.0,43.0,30.46,NW,320,7.0,8.0,82,-99.99,,,-99.99,,2013-05-25 18:01:00,
2013-05-25 13:11:00,48.0,43.0,30.46,NW,320,7.0,8.0,82,-99.99,,,-99.99,,2013-05-25 18:11:00,
2013-05-25 13:21:00,48.0,43.0,30.46,NW,320,7.0,8.0,82,-99.99,,,-99.99,,2013-05-25 18:21:00,
2013-05-25 13:31:00,49.0,43.0,30.44,NNW,330,6.0,7.0,79,-99.99,,,-99.99,,2013-05-25 18:31:00,
2013-05-25 13:41:00,49.0,43.0,30.44,NNW,330,6.0,7.0,79,-99.99,,,-99.99,,2013-05-25 18:41:00,
2013-05-25 13:51:00,49.0,43.0,30.44,NNW,340,5.0,6.0,78,-99.99,,,-99.99,,2013-05-25 18:51:00,
2013-05-25 14:01:00,50.0,42.0,30.43,NW,310,3.0,6.0,75,-99.99,,,-99.99,,2013-05-25 19:01:00,
2013-05-25 14:11:00,51.0,43.0,30.42,North,350,2.0,3.0,74,-99.99,,,-99.99,,2013-05-25 19:11:00,
2013-05-25 14:21:00,51.0,43.0,30.42,North,350,2.0,3.0,74,-99.99,,,-99.99,,2013-05-25 19:21:00,
2013-05-25 14:31:00,51.0,43.0,30.41,NNW,340,3.0,5.0,73,-99.99,,,-99.99,,2013-05-25 19:31:00,
2013-05-25 14:41:00,51.0,43.0,30.41,NNW,340,3.0,5.0,73,-99.99,,,-99.99,,2013-05-25 19:41:00,
2013-05-25 14:52:00,49.0,42.0,30.41,North,360,3.0,5.0,75,-99.99,,,-99.99,,2013-05-25 19:52:00,
2013-05-25 15:02:00,51.0,42.0,30.40,North,350,3.0,6.0,73,-99.99,,,-99.99,,2013-05-25 20:02:00,
2013-05-25 15:11:00,52.0,43.0,30.40,North,350,3.0,5.0,70,-99.99,,,-99.99,,2013-05-25 20:11:00,
2013-05-25 15:21:00,54.0,43.0,30.39,NNW,340,5.0,6.0,65,-99.99,,,-99.99,,2013-05-25 20:21:00,
2013-05-25 15:32:00,54.0,43.0,30.39,NNW,340,5.0,6.0,65,-99.99,,,-99.99,,2013-05-25 20:32:00,
2013-05-25 15:41:00,54.0,43.0,30.39,NNW,340,5.0,6.0,65,-99.99,,,-99.99,,2013-05-25 20:41:00,
2013-05-25 15:51:00,53.0,43.0,30.40,North,350,3.0,6.0,67,-99.99,,,-99.99,,2013-05-25 20:51:00,
2013-05-25 16:01:00,52.0,42.0,30.38,North,360,5.0,7.0,68,-99.99,,,-99.99,,2013-05-25 21:01:00,
2013-05-25 16:11:00,52.0,42.0,30.38,North,360,5.0,7.0,68,-99.99,,,-99.99,,2013-05-25 21:11:00,
2013-05-25 16:21:00,53.0,42.0,30.37,NNW,340,3.0,5.0,66,-99.99,,,-99.99,,2013-05-25 21:21:00,
2013-05-25 16:32:00,53.0,42.0,30.37,NNW,340,3.0,5.0,66,-99.99,,,-99.99,,2013-05-25 21:32:00,
2013-05-25 16:42:00,53.0,42.0,30.37,NNW,340,3.0,5.0,66,-99.99,,,-99.99,,2013-05-25 21:42:00,
2013-05-25 16:53:00,52.0,42.0,30.37,NNW,330,6.0,7.0,68,-99.99,,,-99.99,,2013-05-25 21:53:00,
2013-05-25 17:02:00,52.0,41.0,30.37,NNW,330,6.0,8.0,66,-99.99,,,-99.99,,2013-05-25 22:02:00,
2013-05-25 17:12:00,52.0,41.0,30.37,NNW,330,6.0,8.0,66,-99.99,,,-99.99,,2013-05-25 22:12:00,
2013-05-25 17:22:00,50.0,41.0,30.36,North,360,10.0,11.0,70,-99.99,,,-99.99,,2013-05-25 22:22:00,
2013-05-25 17:32:00,50.0,41.0,30.36,North,360,10.0,11.0,70,-99.99,,,-99.99,,2013-05-25 22:32:00,
2013-05-25 17:42:00,50.0,41.0,30.36,North,360,10.0,11.0,70,-99.99,,,-99.99,,2013-05-25 22:42:00,
2013-05-25 17:52:00,50.0,41.0,30.37,North,360,11.0,14.0,69,-99.99,,,-99.99,,2013-05-25 22:52:00,
2013-05-25 18:02:00,51.0,40.0,30.37,North,350,10.0,11.0,67,-99.99,,,-99.99,,2013-05-25 23:02:00,
2013-05-25 18:11:00,51.0,40.0,30.37,North,350,10.0,11.0,67,-99.99,,,-99.99,,2013-05-25 23:11:00,
2013-05-25 18:21:00,50.0,41.0,30.37,North,360,14.0,15.0,69,-99.99,,,-99.99,,2013-05-25 23:21:00,
2013-05-25 18:31:00,50.0,41.0,30.37,North,360,14.0,15.0,69,-99.99,,,-99.99,,2013-05-25 23:31:00,
2013-05-25 18:42:00,50.0,41.0,30.37,North,360,14.0,15.0,69,-99.99,,,-99.99,,2013-05-25 23:42:00,
2013-05-25 18:52:00,49.0,41.0,30.37,North,10,13.0,14.0,73,-99.99,,,-99.99,,2013-05-25 23:52:00,
2013-05-25 19:01:00,49.0,41.0,30.37,North,10,13.0,15.0,73,-99.99,,,-99.99,,2013-05-26 00:01:00,
2013-05-25 19:11:00,49.0,41.0,30.37,North,10,13.0,15.0,73,-99.99,,,-99.99,,2013-05-26 00:11:00,
2013-05-25 19:21:00,49.0,41.0,30.37,North,10,11.0,13.0,75,-99.99,,,-99.99,,2013-05-26 00:21:00,
2013-05-25 19:31:00,49.0,40.0,30.36,North,10,13.0,14.0,71,-99.99,,,-99.99,,2013-05-26 00:31:00,
2013-05-25 19:42:00,49.0,40.0,30.36,North,10,13.0,14.0,71,-99.99,,,-99.99,,2013-05-26 00:42:00,
2013-05-25 19:52:00,49.0,39.0,30.36,North,10,14.0,16.0,67,-99.99,,,-99.99,,2013-05-26 00:52:00,
2013-05-25 20:01:00,49.0,41.0,30.35,North,10,14.0,16.0,72,-99.99,,,-99.99,,2013-05-26 01:01:00,
2013-05-25 20:11:00,49.0,41.0,30.35,North,10,14.0,16.0,72,-99.99,,,-99.99,,2013-05-26 01:11:00,
2013-05-25 20:21:00,49.0,42.0,30.36,North,10,13.0,15.0,77,-99.99,,,-99.99,,2013-05-26 01:21:00,
2013-05-25 20:32:00,49.0,42.0,30.36,North,10,13.0,15.0,77,-99.99,,,-99.99,,2013-05-26 01:32:00,
2013-05-25 20:41:00,49.0,42.0,30.36,North,10,13.0,15.0,77,-99.99,,,-99.99,,2013-05-26 01:41:00,
2013-05-25 20:52:00,49.0,42.0,30.35,NNE,20,13.0,15.0,77,-99.99,,,-99.99,,2013-05-26 01:52:00,
2013-05-25 21:02:00,49.0,43.0,30.35,NNE,20,10.0,13.0,77,-99.99,,,-99.99,,2013-05-26 02:02:00,
2013-05-25 21:11:00,49.0,43.0,30.35,NNE,20,10.0,13.0,77,-99.99,,,-99.99,,2013-05-26 02:11:00,
2013-05-25 21:21:00,50.0,43.0,30.36,North,10,10.0,11.0,76,-99.99,,,-99.99,,2013-05-26 02:21:00,
2013-05-25 21:32:00,50.0,43.0,30.36,North,10,10.0,11.0,76,-99.99,,,-99.99,,2013-05-26 02:32:00,
2013-05-25 21:41:00,50.0,43.0,30.36,North,10,10.0,11.0,76,-99.99,,,-99.99,,2013-05-26 02:41:00,
2013-05-25 21:52:00,50.0,43.0,30.36,North,10,9.0,11.0,75,-99.99,,,-99.99,,2013-05-26 02:52:00,
2013-05-25 22:01:00,51.0,43.0,30.36,North,10,9.0,10.0,74,-99.99,,,-99.99,,2013-05-26 03:01:00,
2013-05-25 22:11:00,51.0,43.0,30.36,North,10,9.0,10.0,74,-99.99,,,-99.99,,2013-05-26 03:11:00,
2013-05-25 22:21:00,51.0,43.0,30.37,North,360,8.0,9.0,75,-99.99,,,-99.99,,2013-05-26 03:21:00,
2013-05-25 22:32:00,51.0,43.0,30.37,North,360,8.0,9.0,75,-99.99,,,-99.99,,2013-05-26 03:32:00,
2013-05-25 22:42:00,51.0,43.0,30.37,North,360,8.0,9.0,75,-99.99,,,-99.99,,2013-05-26 03:42:00,
2013-05-25 22:53:00,50.0,43.0,30.37,North,350,8.0,10.0,74,-99.99,,,-99.99,,2013-05-26 03:53:00,
2013-05-25 23:02:00,50.0,42.0,30.37,North,350,8.0,10.0,73,-99.99,,,-99.99,,2013-05-26 04:02:00,
2013-05-25 23:12:00,50.0,42.0,30.37,NNW,340,8.0,9.0,74,-99.99,,,-99.99,,2013-05-26 04:12:00,
2013-05-25 23:23:00,49.0,42.0,30.37,NW,320,7.0,8.0,75,-99.99,,,-99.99,,2013-05-26 04:23:00,
2013-05-25 23:32:00,49.0,42.0,30.37,NW,320,7.0,8.0,75,-99.99,,,-99.99,,2013-05-26 04:32:00,
2013-05-25 23:42:00,49.0,42.0,30.37,NW,320,7.0,8.0,75,-99.99,,,-99.99,,2013-05-26 04:42:00,
2013-05-25 23:52:00,49.0,42.0,30.38,West,280,6.0,7.0,75,-99.99,,,-99.99,,2013-05-26 04:52:00,